Hourly Weather Bolshie Turki

Today, 24 July, Saturday

Time Temperature Precipitation Wind Pressure Humidity
00:00 +18°C° 0 mm 1 mps 741 mmHg 62%
01:00 +16°C° 0 mm 2 mps 741 mmHg 63%
02:00 +16°C° 0 mm 2 mps 741 mmHg 64%
03:00 +16°C° 0 mm 2 mps 741 mmHg 65%
04:00 +16°C° 0 mm 2 mps 742 mmHg 66%
05:00 +17°C° 0 mm 2 mps 742 mmHg 67%
06:00 +17°C° 0 mm 2 mps 742 mmHg 67%
07:00 +19°C° 0 mm 3 mps 742 mmHg 62%
08:00 +21°C° 0 mm 3 mps 742 mmHg 57%
09:00 +24°C° 0 mm 3 mps 742 mmHg 53%
10:00 +23°C° 0 mm 4 mps 743 mmHg 50%
11:00 +23°C° 0 mm 5 mps 743 mmHg 48%
12:00 +24°C° 0 mm 6 mps 743 mmHg 46%
13:00 +25°C° 0 mm 5 mps 743 mmHg 46%
14:00 +25°C° 0 mm 5 mps 743 mmHg 45%
15:00 +25°C° 0 mm 5 mps 743 mmHg 44%
16:00 +25°C° 0 mm 4 mps 743 mmHg 46%
17:00 +25°C° 0 mm 4 mps 744 mmHg 48%
18:00 +23°C° 0 mm 4 mps 744 mmHg 50%
19:00 +22°C° 0 mm 3 mps 744 mmHg 55%
20:00 +20°C° 0 mm 2 mps 745 mmHg 60%
21:00 +18°C° 0 mm 2 mps 745 mmHg 65%
22:00 +18°C° 0 mm 2 mps 746 mmHg 68%
23:00 +17°C° 0 mm 2 mps 746 mmHg 71%

Tomorrow, 25 July, Sunday

Time Temperature Precipitation Wind Pressure Humidity
00:00 +17°C° 0 mm 2 mps 746 mmHg 74%
01:00 +16°C° 0 mm 2 mps 746 mmHg 76%
02:00 +15°C° 0 mm 2 mps 747 mmHg 77%
03:00 +15°C° 0 mm 2 mps 747 mmHg 79%
04:00 +15°C° 0 mm 2 mps 747 mmHg 77%
05:00 +16°C° 0 mm 2 mps 748 mmHg 75%
06:00 +16°C° 0 mm 2 mps 748 mmHg 73%
07:00 +18°C° 0 mm 3 mps 748 mmHg 65%
08:00 +20°C° 0 mm 3 mps 749 mmHg 57%
09:00 +22°C° 0 mm 3 mps 749 mmHg 49%
10:00 +24°C° 0 mm 3 mps 749 mmHg 45%
11:00 +25°C° 0 mm 2 mps 749 mmHg 41%
12:00 +26°C° 0 mm 2 mps 750 mmHg 37%
13:00 +26°C° 0 mm 2 mps 750 mmHg 36%
14:00 +26°C° 0 mm 2 mps 750 mmHg 36%
15:00 +26°C° 0 mm 2 mps 750 mmHg 35%
16:00 +26°C° 0 mm 3 mps 750 mmHg 38%
17:00 +25°C° 0 mm 3 mps 750 mmHg 41%
18:00 +24°C° 0 mm 3 mps 750 mmHg 45%
19:00 +22°C° 0 mm 3 mps 750 mmHg 49%
20:00 +20°C° 0 mm 3 mps 750 mmHg 53%
21:00 +19°C° 0 mm 3 mps 751 mmHg 57%
22:00 +18°C° 0 mm 3 mps 751 mmHg 58%
23:00 +17°C° 0 mm 3 mps 751 mmHg 59%

Day after tomorrow, 26 July, Monday

Time Temperature Precipitation Wind Pressure Humidity
00:00 +17°C° 0 mm 2 mps 751 mmHg 59%
01:00 +17°C° 0 mm 2 mps 752 mmHg 58%
02:00 +17°C° 0 mm 2 mps 752 mmHg 56%
03:00 +17°C° 0 mm 2 mps 752 mmHg 55%
04:00 +18°C° 0 mm 2 mps 752 mmHg 56%
05:00 +18°C° 0 mm 2 mps 752 mmHg 57%
06:00 +18°C° 0 mm 2 mps 752 mmHg 58%
07:00 +19°C° 0 mm 2 mps 753 mmHg 54%
08:00 +21°C° 0 mm 2 mps 753 mmHg 49%
09:00 +24°C° 0 mm 2 mps 753 mmHg 45%
10:00 +25°C° 0 mm 2 mps 753 mmHg 42%
11:00 +26°C° 0 mm 2 mps 753 mmHg 39%
12:00 +27°C° 0 mm 2 mps 753 mmHg 36%
13:00 +27°C° 0 mm 2 mps 752 mmHg 35%
14:00 +27°C° 0 mm 3 mps 752 mmHg 35%
15:00 +27°C° 0 mm 3 mps 752 mmHg 34%
16:00 +27°C° 0 mm 3 mps 752 mmHg 36%
17:00 +26°C° 0 mm 3 mps 752 mmHg 39%
18:00 +25°C° 0 mm 3 mps 752 mmHg 41%
19:00 +24°C° 0 mm 3 mps 752 mmHg 45%
20:00 +21°C° 0 mm 3 mps 752 mmHg 48%
21:00 +19°C° 0 mm 2 mps 752 mmHg 52%
22:00 +18°C° 0 mm 2 mps 752 mmHg 53%
23:00 +18°C° 0 mm 2 mps 752 mmHg 54%

27 July, Tuesday

Time Temperature Precipitation Wind Pressure Humidity
00:00 +17°C° 0 mm 2 mps 752 mmHg 55%
01:00 +18°C° 0 mm 1 mps 752 mmHg 55%
02:00 +16°C° 0 mm 1 mps 752 mmHg 55%
03:00 +16°C° 0 mm 1 mps 752 mmHg 55%
04:00 +18°C° 0 mm 1 mps 752 mmHg 55%
05:00 +18°C° 0 mm 1 mps 752 mmHg 55%
06:00 +19°C° 0 mm 1 mps 752 mmHg 54%
07:00 +21°C° 0 mm 1 mps 752 mmHg 48%
08:00 +23°C° 0 mm 1 mps 752 mmHg 43%
09:00 +25°C° 0 mm 1 mps 752 mmHg 37%
10:00 +26°C° 0 mm 2 mps 752 mmHg 36%
11:00 +27°C° 0 mm 2 mps 751 mmHg 34%
12:00 +28°C° 0 mm 3 mps 751 mmHg 32%
13:00 +28°C° 0 mm 3 mps 751 mmHg 32%
14:00 +28°C° 0 mm 3 mps 750 mmHg 32%
15:00 +29°C° 0 mm 3 mps 750 mmHg 31%
16:00 +28°C° 0 mm 3 mps 750 mmHg 34%
17:00 +28°C° 0 mm 3 mps 750 mmHg 36%
18:00 +27°C° 0 mm 3 mps 750 mmHg 39%
19:00 +25°C° 0 mm 2 mps 750 mmHg 42%
20:00 +23°C° 0 mm 2 mps 750 mmHg 46%
21:00 +22°C° 0 mm 1 mps 750 mmHg 50%
22:00 +21°C° 0 mm 1 mps 750 mmHg 52%
23:00 +20°C° 0 mm 1 mps 750 mmHg 54%

28 July, Wednesday

Time Temperature Precipitation Wind Pressure Humidity
00:00 +20°C° 0 mm 1 mps 750 mmHg 57%
01:00 +19°C° 0 mm 1 mps 750 mmHg 58%
02:00 +19°C° 0 mm 1 mps 749 mmHg 59%
03:00 +19°C° 0 mm 1 mps 749 mmHg 60%
04:00 +19°C° 0 mm 1 mps 749 mmHg 60%
05:00 +20°C° 0 mm 1 mps 749 mmHg 60%
06:00 +20°C° 0 mm 1 mps 749 mmHg 60%
07:00 +21°C° 0 mm 2 mps 749 mmHg 54%
08:00 +24°C° 0 mm 2 mps 749 mmHg 49%
09:00 +26°C° 0 mm 2 mps 749 mmHg 43%
10:00 +27°C° 0 mm 2 mps 749 mmHg 40%
11:00 +29°C° 0 mm 3 mps 749 mmHg 37%
12:00 +30°C° 0 mm 3 mps 749 mmHg 34%
13:00 +30°C° 0 mm 3 mps 748 mmHg 33%
14:00 +30°C° 0 mm 3 mps 748 mmHg 32%
15:00 +30°C° 0 mm 3 mps 748 mmHg 31%
16:00 +30°C° 0 mm 3 mps 748 mmHg 33%
17:00 +29°C° 0 mm 2 mps 747 mmHg 35%
18:00 +29°C° 0 mm 2 mps 747 mmHg 37%
19:00 +27°C° 0 mm 2 mps 747 mmHg 41%
20:00 +25°C° 0 mm 1 mps 747 mmHg 45%
21:00 +24°C° 0 mm 1 mps 747 mmHg 48%
22:00 +23°C° 0 mm 1 mps 747 mmHg 50%
23:00 +22°C° 0 mm 1 mps 746 mmHg 51%

29 July, Thursday

Time Temperature Precipitation Wind Pressure Humidity
00:00 +21°C° 0 mm 2 mps 746 mmHg 52%
01:00 +21°C° 0 mm 2 mps 746 mmHg 52%
02:00 +21°C° 0 mm 2 mps 746 mmHg 51%
03:00 +21°C° 0 mm 2 mps 746 mmHg 50%
04:00 +21°C° 0 mm 2 mps 746 mmHg 51%
05:00 +21°C° 0 mm 2 mps 746 mmHg 52%
06:00 +21°C° 0 mm 3 mps 746 mmHg 53%
07:00 +22°C° 0 mm 3 mps 746 mmHg 53%
08:00 +23°C° 0 mm 4 mps 746 mmHg 53%
09:00 +25°C° 0 mm 4 mps 746 mmHg 53%
10:00 +22°C° 0.5 mm 4 mps 746 mmHg 63%
11:00 +21°C° 0.5 mm 4 mps 746 mmHg 74%
12:00 +19°C° 0.5 mm 4 mps 746 mmHg 85%
13:00 +19°C° 1.5 mm 4 mps 746 mmHg 85%
14:00 +19°C° 1.5 mm 3 mps 745 mmHg 86%
15:00 +19°C° 1.5 mm 3 mps 745 mmHg 86%
16:00 +18°C° 0.5 mm 3 mps 745 mmHg 86%
17:00 +18°C° 0.5 mm 3 mps 744 mmHg 86%
18:00 +18°C° 0.5 mm 3 mps 744 mmHg 86%
19:00 +18°C° 0.1 mm 3 mps 743 mmHg 84%
20:00 +19°C° 0.1 mm 4 mps 743 mmHg 81%
21:00 +19°C° 0.1 mm 4 mps 743 mmHg 79%
22:00 +19°C° 0.1 mm 3 mps 742 mmHg 78%
23:00 +19°C° 0.1 mm 3 mps 742 mmHg 77%
Show more